Weather History for West Memphis, AR

Change the Weather History Date:

Saturday, May 11, 2013

  Actual Average Record
Temperature  
Mean Temperature 66 °F -  
Max Temperature 73 °F 80 °F 88 °F (1967)
Min Temperature 60 °F 57 °F 44 °F (1969)
Cooling Degree Days 2    
Growing Degree Days 16 (Base 50)    
Moisture  
Dew Point 56 °F    
Average Humidity 71    
Maximum Humidity 93    
Minimum Humidity 48    
Precipitation  
Precipitation 0.00 in - - ()
Sea Level Pressure  
Sea Level Pressure 30.01 in    
Wind  
Wind Speed 7 mph (North)    
Max Wind Speed 15 mph    
Max Gust Speed -    
Visibility 10 miles    
Events      
Averages and records for this station are not official NWS values.
T = Trace of Precipitation, MM = Missing Value Source: NWS Daily Summary

Daily Weather History Graph

Daily Weather History Graph

Search for Another Location

Airport:

Trip Planner

Search our weather history database for the weather conditions in past years. The results will help you decide how hot, cold, wet, or windy it might be!

Date:

Astronomy

May. 11, 2013 Rise Set
Actual Time 6:00 AM CDT 7:55 PM CDT
Civil Twilight 5:32 AM CDT 8:22 PM CDT
Nautical Twilight 4:58 AM CDT 8:56 PM CDT
Astronomical Twilight 4:22 AM CDT 9:32 PM CDT
Moon 7:09 AM CDT (5/11) 9:34 PM CDT (5/11)
Length of Visible Light 14h 50m
Length of Day
13h 54m
Waxing Crescent, 3% of the Moon is Illuminated
May 11
Waxing Crescent
May 17
First Quarter
May 24
Full
May 31
Last Quarter
Jun 8
New

Hourly Weather History & Observations

Time (CDT) Temp. Dew Point Humidity Pressure Visibility Wind Dir Wind Speed Gust Speed Precip Events Conditions
12:53 AM 66.9 °F 64.9 °F 93% 29.96 in 10.0 mi WSW 3.5 mph - N/A   Mostly Cloudy
1:53 AM 66.9 °F 62.1 °F 84% 29.95 in 10.0 mi NNW 6.9 mph - N/A   Mostly Cloudy
2:03 AM 66.2 °F 60.8 °F 83% 29.95 in 10.0 mi North 12.7 mph - N/A   Scattered Clouds
2:53 AM 64.0 °F 57.9 °F 80% 29.94 in 10.0 mi NNE 15.0 mph - N/A   Clear
3:53 AM 62.1 °F 57.9 °F 86% 29.94 in 10.0 mi NNE 6.9 mph - N/A   Clear
4:53 AM 61.0 °F 57.9 °F 90% 29.95 in 10.0 mi North 5.8 mph - N/A   Clear
5:53 AM 60.1 °F 57.0 °F 90% 29.98 in 10.0 mi North 6.9 mph - N/A   Partly Cloudy
6:53 AM 61.0 °F 57.0 °F 87% 30.00 in 10.0 mi NNE 6.9 mph - N/A   Overcast
7:53 AM 62.1 °F 57.0 °F 84% 30.02 in 10.0 mi North 5.8 mph - N/A   Mostly Cloudy
8:53 AM 63.0 °F 55.9 °F 78% 30.03 in 10.0 mi North 8.1 mph - N/A   Partly Cloudy
9:49 AM 64.4 °F 55.4 °F 73% 30.03 in 10.0 mi North 10.4 mph - N/A   Mostly Cloudy
9:53 AM 64.9 °F 55.0 °F 70% 30.03 in 10.0 mi North 9.2 mph - N/A   Mostly Cloudy
10:01 AM 66.2 °F 55.4 °F 68% 30.03 in 10.0 mi North 8.1 mph - N/A   Scattered Clouds
10:08 AM 66.2 °F 55.4 °F 68% 30.04 in 10.0 mi North 6.9 mph - N/A   Mostly Cloudy
10:21 AM 66.2 °F 55.4 °F 68% 30.04 in 10.0 mi North 5.8 mph - N/A   Scattered Clouds
10:53 AM 68.0 °F 55.9 °F 65% 30.03 in 10.0 mi NNW 10.4 mph - N/A   Mostly Cloudy
11:33 AM 66.2 °F 55.4 °F 68% 30.03 in 10.0 mi North 10.4 mph - N/A   Mostly Cloudy
11:45 AM 69.8 °F 55.4 °F 60% 30.03 in 10.0 mi Variable 5.8 mph - N/A   Mostly Cloudy
11:53 AM 68.0 °F 55.0 °F 63% 30.02 in 10.0 mi NNW 8.1 mph - N/A   Mostly Cloudy
12:53 PM 69.1 °F 55.9 °F 63% 30.03 in 10.0 mi North 8.1 mph - N/A   Mostly Cloudy
1:53 PM 70.0 °F 55.9 °F 61% 30.03 in 10.0 mi North 8.1 mph - N/A   Mostly Cloudy
2:53 PM 71.1 °F 54.0 °F 55% 30.03 in 10.0 mi North 9.2 mph - N/A   Mostly Cloudy
3:53 PM 73.0 °F 55.0 °F 53% 30.01 in 10.0 mi NNE 8.1 mph - N/A   Mostly Cloudy
4:53 PM 72.0 °F 52.0 °F 49% 30.02 in 10.0 mi North 8.1 mph - N/A   Partly Cloudy
5:53 PM 73.0 °F 52.0 °F 48% 30.01 in 10.0 mi North 4.6 mph - N/A   Partly Cloudy
6:53 PM 71.1 °F 55.0 °F 57% 29.99 in 10.0 mi Calm Calm - N/A   Clear
7:53 PM 64.0 °F 55.0 °F 73% 30.01 in 10.0 mi Calm Calm - N/A   Clear
8:53 PM 66.0 °F 53.1 °F 63% 30.01 in 10.0 mi SW 4.6 mph - N/A   Clear
9:53 PM 63.0 °F 55.9 °F 78% 30.04 in 10.0 mi Calm Calm - N/A   Mostly Cloudy
10:53 PM 61.0 °F 57.0 °F 87% 30.05 in 10.0 mi Calm Calm - N/A   Partly Cloudy
11:53 PM 64.9 °F 45.0 °F 48% 30.08 in 10.0 mi North 13.8 mph - N/A   Mostly Cloudy